Location: Recife
(8.0585°S, 34.8848°W)
Time: 05:20:15
(UTC-03:00)

Courier 1B - Pass Details

Date: 17 April 2026
Orbit: 962 x 1209 km, 28.3° (Epoch: 14 May)

Event Time Altitude Azimuth Distance (km) Brightness Sun altitude
Rises 13:08:05 0° 234° (SW) 4,036 10.9 57.1°
Reaches altitude 10° 13:11:05 10° 228° (SW) 3,042 10.3 56.4°
Maximum altitude 13:18:18 49° 155° (SSE) 1,383 8.6 54.9°
Drops below altitude 10° 13:25:03 10° 81° (E) 2,856 9.8 53.5°
Sets 13:27:47 0° 75° (ENE) 3,771 10.3 52.9°
